User: anonymous   Login
Location: Caltech
(34.1382°N, 118.1253°W)
Time: 10:36:43
(UTC-07:00)
Language:

Cosmos 2251 Rocket - Orbit

View from above orbital plane
View from above orbital plane
View from above satellite
View from above satellite

Ground track
Ground track

The orbit data is extracted from the following two-line orbital elements,

1 22676U 93036B   15108.42685400  .00000279  00000-0  10938-3 0  9990
2 22676 074.0435 187.9260 0018141 045.7957 314.4682 14.33765540142006
Epoch (UTC): 18 April 2015 10:14:40
Eccentricity: 0.0018141
inclination: 74.0435°
perigee height: 766 km
apogee height: 792 km
right ascension of ascending node: 187.9260°
argument of perigee: 45.7957°
revolutions per day: 14.33765540
mean anomaly at epoch: 314.4682°
orbit number at epoch: 14200

The dashed part of the orbit path shows where the satellite is in the earth's shadow,  

DLR